Fernandina Beach, FL

8:18 AM EST on December 13, 2019 (GMT -0500)
Fernandina Beach

Weather History for KFHB - October, 2019

Change the Weather History Date:

Thursday, October 10, 2019

  Actual Average (KNRB) Record (KNRB)
Temperature  
Mean Temperature 77 °F -  
Max Temperature 81 °F 78 °F 88 °F (2017)
Min Temperature 73 °F 67 °F -13 °F (2016)
Cooling Degree Days 12    
Growing Degree Days 27 (Base 50)    
Moisture  
Dew Point 68 °F    
Average Humidity 76    
Maximum Humidity 83    
Minimum Humidity 60    
Precipitation  
Precipitation 0.13 in - - ()
Sea Level Pressure  
Sea Level Pressure 30.06 in    
Wind  
Wind Speed 14 mph (NE)    
Max Wind Speed 22 mph    
Max Gust Speed 28 mph    
Visibility 10 miles    
Events      
Averages and records for this station are not official NWS values.
T = Trace of Precipitation, MM = Missing Value Source: NWS Daily Summary

Daily Weather History Graph

Daily Weather History Graph

Search for Another Location

Airport or City:

Astronomy

Oct. 10, 2019 Rise Set
Actual Time 7:24 AM EDT 7:00 PM EDT
Civil Twilight 7:00 AM EDT 7:24 PM EDT
Nautical Twilight 6:32 AM EDT 7:52 PM EDT
Astronomical Twilight 6:04 AM EDT 8:20 PM EDT
Moon 5:44 PM EDT (10/10) 4:26 AM EDT (10/10)
Length of Visible Light 12h 23m
Length of Day
11h 35m
Waxing Gibbous, 91% of the Moon is Illuminated
Oct 10
Waxing Gibbous
Oct 13
Full
Oct 21
Last Quarter
Oct 27
New
Nov 4
First Quarter

Hourly Weather History & Observations

Time (EDT) Temp. Heat Index Dew Point Humidity Pressure Visibility Wind Dir Wind Speed Gust Speed Precip Events Conditions
12:15 AM 75.0 °F - 68.9 °F 81% 30.06 in 10.0 mi NE 10.4 mph - N/A   Overcast
12:35 AM 74.8 °F - 69.1 °F 82% 30.06 in 10.0 mi NE 10.4 mph 18.4 mph N/A   Overcast
12:55 AM 74.7 °F - 69.3 °F 83% 30.05 in 10.0 mi NE 10.4 mph - N/A   Mostly Cloudy
1:15 AM 74.7 °F - 69.3 °F 83% 30.05 in 10.0 mi NE 12.7 mph - 0.01 in   Mostly Cloudy
1:35 AM 75.2 °F - 69.6 °F 83% 30.05 in 10.0 mi NE 12.7 mph - 0.01 in   Mostly Cloudy
1:55 AM 75.6 °F - 69.6 °F 82% 30.05 in 10.0 mi NE 12.7 mph 20.7 mph 0.01 in   Overcast
2:15 AM 75.4 °F - 69.6 °F 82% 30.05 in 10.0 mi NE 11.5 mph - N/A   Overcast
2:35 AM 75.4 °F - 69.8 °F 83% 30.04 in 10.0 mi NNE 11.5 mph - 0.01 in   Overcast
2:55 AM 75.7 °F - 69.8 °F 82% 30.04 in 10.0 mi NE 15.0 mph 20.7 mph 0.01 in   Overcast
3:15 AM 75.7 °F - 69.6 °F 81% 30.04 in 10.0 mi NE 12.7 mph - N/A   Overcast
3:35 AM 75.9 °F - 69.4 °F 80% 30.03 in 10.0 mi NE 13.8 mph 19.6 mph N/A   Overcast
3:55 AM 75.7 °F - 69.3 °F 80% 30.03 in 10.0 mi NE 15.0 mph - 0.01 in   Overcast
4:15 AM 75.7 °F - 69.3 °F 80% 30.03 in 10.0 mi NE 13.8 mph 20.7 mph N/A   Mostly Cloudy
4:35 AM 75.9 °F - 69.3 °F 80% 30.03 in 10.0 mi NE 16.1 mph 23.0 mph N/A   Mostly Cloudy
4:55 AM 75.9 °F - 69.8 °F 81% 30.03 in 10.0 mi NE 15.0 mph 20.7 mph 0.01 in   Overcast
5:15 AM 75.6 °F - 69.6 °F 82% 30.03 in 10.0 mi NE 13.8 mph - N/A   Mostly Cloudy
5:35 AM 75.6 °F - 69.3 °F 81% 30.03 in 10.0 mi NE 16.1 mph - N/A   Mostly Cloudy
5:55 AM 75.4 °F - 69.6 °F 82% 30.04 in 10.0 mi NE 13.8 mph 20.7 mph 0.01 in   Mostly Cloudy
6:15 AM 75.6 °F - 68.9 °F 80% 30.04 in 10.0 mi NE 18.4 mph 23.0 mph N/A   Mostly Cloudy
6:35 AM 75.4 °F - 69.3 °F 81% 30.04 in 10.0 mi NE 16.1 mph - N/A   Scattered Clouds
6:55 AM 75.4 °F - 69.3 °F 81% 30.05 in 10.0 mi NE 15.0 mph 24.2 mph 0.01 in   Scattered Clouds
7:15 AM 75.2 °F - 69.6 °F 83% 30.05 in 10.0 mi NE 16.1 mph 23.0 mph N/A   Scattered Clouds
7:35 AM 75.6 °F - 69.1 °F 80% 30.05 in 10.0 mi NE 15.0 mph 23.0 mph N/A   Scattered Clouds
7:55 AM 75.6 °F - 68.2 °F 78% 30.06 in 10.0 mi NE 17.3 mph - 0.01 in   Scattered Clouds
8:15 AM 76.1 °F - 67.6 °F 75% 30.06 in 10.0 mi NE 17.3 mph - N/A   Scattered Clouds
8:35 AM 76.5 °F - 68.2 °F 75% 30.07 in 10.0 mi NE 20.7 mph 26.5 mph 0.01 in   Scattered Clouds
8:55 AM 76.8 °F - 67.5 °F 73% 30.08 in 10.0 mi NE 16.1 mph - 0.01 in   Scattered Clouds
9:15 AM 77.2 °F - 67.3 °F 71% 30.08 in 10.0 mi NE 15.0 mph 24.2 mph N/A   Mostly Cloudy
9:35 AM 77.4 °F - 67.1 °F 71% 30.09 in 10.0 mi NE 17.3 mph 23.0 mph 0.01 in   Mostly Cloudy
9:55 AM 78.3 °F - 68.7 °F 72% 30.09 in 10.0 mi NE 13.8 mph 23.0 mph 0.01 in   Mostly Cloudy
10:15 AM 78.4 °F - 68.9 °F 72% 30.09 in 10.0 mi NE 17.3 mph 23.0 mph N/A   Mostly Cloudy
10:35 AM 79.5 °F - 69.1 °F 70% 30.09 in 10.0 mi NE 18.4 mph 21.9 mph 0.01 in   Mostly Cloudy
10:55 AM 80.2 °F 83.2 °F 69.3 °F 69% 30.10 in 10.0 mi ENE 16.1 mph 24.2 mph 0.01 in   Mostly Cloudy
11:15 AM 80.8 °F 83.9 °F 69.3 °F 68% 30.10 in 10.0 mi NE 16.1 mph - 0.01 in   Mostly Cloudy
11:35 AM 80.2 °F 83.0 °F 68.2 °F 67% 30.10 in 10.0 mi NE 17.3 mph 26.5 mph 0.01 in   Scattered Clouds
11:55 AM 80.6 °F 83.2 °F 67.8 °F 65% 30.10 in 10.0 mi ENE 17.3 mph 24.2 mph 0.01 in   Scattered Clouds
12:15 PM 81.5 °F 83.7 °F 66.6 °F 60% 30.10 in 10.0 mi NE 16.1 mph 21.9 mph 0.01 in   Scattered Clouds
12:35 PM 79.7 °F - 69.6 °F 71% 30.10 in 10.0 mi NE 21.9 mph 26.5 mph 0.01 in   Scattered Clouds
12:55 PM 79.5 °F - 70.0 °F 72% 30.09 in 10.0 mi NNE 16.1 mph 21.9 mph 0.01 in   Mostly Cloudy
1:15 PM 81.1 °F 84.9 °F 70.3 °F 70% 30.09 in 10.0 mi NNE 18.4 mph 26.5 mph 0.01 in   Mostly Cloudy
1:35 PM 80.2 °F 83.3 °F 69.6 °F 70% 30.09 in - NE 17.3 mph 27.6 mph N/A   Mostly Cloudy
2:15 PM 78.4 °F - 69.1 °F 73% 30.07 in 10.0 mi NE 19.6 mph - N/A   Mostly Cloudy
2:35 PM 79.3 °F - 69.1 °F 71% 30.07 in 10.0 mi NE 18.4 mph 25.3 mph N/A   Mostly Cloudy
2:55 PM 77.7 °F - 68.9 °F 74% 30.06 in 10.0 mi NE 16.1 mph 21.9 mph N/A   Overcast
3:15 PM 78.6 °F - 68.4 °F 71% 30.06 in 10.0 mi NE 16.1 mph 24.2 mph N/A   Overcast
3:35 PM 78.3 °F - 68.4 °F 71% 30.06 in 10.0 mi NNE 12.7 mph 20.7 mph N/A   Mostly Cloudy
4:15 PM 78.1 °F - 68.5 °F 72% 30.06 in 10.0 mi NE 15.0 mph 24.2 mph N/A   Mostly Cloudy
4:35 PM 77.5 °F - 68.4 °F 73% 30.05 in 10.0 mi NNE 16.1 mph 20.7 mph N/A   Mostly Cloudy
4:55 PM 76.1 °F - 67.8 °F 75% 30.05 in 10.0 mi NE 16.1 mph 20.7 mph N/A   Mostly Cloudy
5:15 PM 77.2 °F - 67.8 °F 73% 30.06 in 10.0 mi NE 17.3 mph 20.7 mph N/A   Mostly Cloudy
5:35 PM 76.8 °F - 67.8 °F 74% 30.06 in 10.0 mi NE 15.0 mph 20.7 mph N/A   Scattered Clouds
5:55 PM 75.2 °F - 67.1 °F 76% 30.06 in 10.0 mi NE 15.0 mph - N/A   Mostly Cloudy
6:15 PM 74.5 °F - 66.7 °F 77% 30.06 in 10.0 mi NE 11.5 mph - N/A   Scattered Clouds
6:35 PM 74.1 °F - 66.4 °F 77% 30.06 in 10.0 mi NE 16.1 mph - N/A   Scattered Clouds
6:55 PM 73.9 °F - 66.4 °F 77% 30.06 in 10.0 mi NE 16.1 mph 20.7 mph N/A   Scattered Clouds
7:15 PM 73.6 °F - 66.6 °F 79% 30.06 in 10.0 mi NE 11.5 mph - N/A   Mostly Cloudy
7:35 PM 73.8 °F - 66.4 °F 78% 30.06 in 10.0 mi NE 12.7 mph - N/A   Mostly Cloudy
7:55 PM 73.6 °F - 65.8 °F 77% 30.06 in 10.0 mi NE 15.0 mph 19.6 mph N/A   Scattered Clouds
8:15 PM 73.4 °F - 66.0 °F 78% 30.06 in 10.0 mi NE 12.7 mph 19.6 mph N/A   Scattered Clouds
8:35 PM 73.4 °F - 65.5 °F 76% 30.06 in 10.0 mi NE 13.8 mph - N/A   Scattered Clouds
8:55 PM 73.6 °F - 65.5 °F 76% 30.06 in 10.0 mi NE 13.8 mph 19.6 mph N/A   Mostly Cloudy
9:15 PM 73.6 °F - 65.1 °F 75% 30.07 in 10.0 mi ENE 11.5 mph - N/A   Scattered Clouds
9:35 PM 73.9 °F - 64.4 °F 72% 30.07 in 10.0 mi ENE 16.1 mph - N/A   Mostly Cloudy
9:55 PM 73.8 °F - 64.6 °F 73% 30.08 in 10.0 mi ENE 12.7 mph - N/A   Overcast
10:15 PM 73.6 °F - 64.8 °F 74% 30.08 in 10.0 mi ENE 13.8 mph - N/A   Mostly Cloudy
10:35 PM 73.6 °F - 64.2 °F 72% 30.08 in 10.0 mi ENE 13.8 mph 18.4 mph N/A   Mostly Cloudy
10:55 PM 73.2 °F - 63.0 °F 70% 30.08 in 10.0 mi ENE 12.7 mph - N/A   Scattered Clouds
11:15 PM 73.4 °F - 63.7 °F 71% 30.08 in 10.0 mi ENE 12.7 mph - N/A   Scattered Clouds
11:35 PM 73.2 °F - 64.0 °F 73% 30.08 in 10.0 mi ENE 16.1 mph - N/A   Scattered Clouds
11:55 PM 73.4 °F - 63.1 °F 70% 30.08 in 10.0 mi ENE 16.1 mph - N/A   Scattered Clouds